User: anonymous   Login
Location: Unspecified
(0.0000°N, 0.0000°E)
Time: 21:02:25
(UTC+00:00)
Language:

AO-Echo - Orbit

View from above orbital plane
View from above orbital plane
View from above satellite
View from above satellite

Ground track
Ground track

The orbit data is extracted from the following two-line orbital elements,

1 28375U 04025K   22222.08470857  .00000145  00000-0  55790-4 0  9995
2 28375  98.4895 157.0629 0082888  24.6463 335.8652 14.42134045952735
Epoch (UTC): 10 August 2022 02:01:58
Eccentricity: 0.0082888
inclination: 98.4895°
perigee height: 692 km
apogee height: 810 km
right ascension of ascending node: 157.0629°
argument of perigee: 24.6463°
revolutions per day: 14.42134045
mean anomaly at epoch: 335.8652°
orbit number at epoch: 95273

The dashed part of the orbit path shows where the satellite is in the earth's shadow,  

DLR